Location: Aalen
(48.8330°N, 10.1000°E)
Time: 17:55:06
(UTC+01:00)

UWE-3 - Pass Details

Date: 14 October 2025
Orbit: 548 x 618 km, 97.8° (Epoch: 16 November)

Event Time Altitude Azimuth Distance (km) Brightness Sun altitude
Rises 04:59:03 0° 4° (N) 2,761 ? -26.7°
Reaches altitude 10° 05:01:23 10° 352° (N) 1,870 ? -26.3°
Enters shadow 05:01:38 11° 351° (N) 1,785 ? -26.3°
